Retour au catalogue

CZ-4B DEB

ActifPO
NORAD 29215·DEBRIS·🇨🇳 China

Lancé May 15, 2002 depuis Taiyuan Satellite Launch Center

Loading…

Prochains Passages (prochaines 24 heures)

TLE

FraisSource: Space-Track

Époque: Sep 11, 2026, 07:09 UTC

1 29215U 02024F   26254.29832473  .00000179  00000-0  22232-3 0  9995
2 29215  98.7331 268.6637 0244172  27.4761  36.4278 13.64073995192028

Suivez CZ-4B DEB en temps réel avec AllMySat

Download on the App Store